Dallas Love, TX

3:47 AM CDT on March 24, 2017 (GMT -0500)
Dallas Love

Weather History for KDAL - March, 2014

Change the Weather History Date:

Tuesday, March 4, 2014

  Actual Average Record
Temperature  
Mean Temperature 38 °F -  
Max Temperature 48 °F 61 °F 88 °F (2013)
Min Temperature 27 °F 42 °F 23 °F (2002)
Degree Days  
Heating Degree Days 28    
Moisture  
Dew Point 23 °F    
Average Humidity 58    
Maximum Humidity 73    
Minimum Humidity 39    
Precipitation  
Precipitation 0.00 in - - ()
Sea Level Pressure  
Sea Level Pressure 30.16 in    
Wind  
Wind Speed 4 mph (ESE)    
Max Wind Speed 13 mph    
Max Gust Speed -    
Visibility 10 miles    
Events      
Averages and records for this station are not official NWS values.
T = Trace of Precipitation, MM = Missing Value Source: NWS Daily Summary

Daily Weather History Graph

Daily Weather History Graph

Search for Another Location

Airport or City:

Trip Planner

Search our weather history database for the weather conditions in past years. The results will help you decide how hot, cold, wet, or windy it might be!

Date:

Astronomy

Mar. 04, 2014 Rise Set
Actual Time 6:51 AM CST 6:27 PM CST
Civil Twilight 6:26 AM CST 6:51 PM CST
Nautical Twilight 5:58 AM CST 7:20 PM CST
Astronomical Twilight 5:29 AM CST 7:48 PM CST
Moon 8:51 AM CST (3/4) 10:20 PM CST (3/4)
Length of Visible Light 12h 24m
Length of Day
11h 35m
Waxing Crescent, 15% of the Moon is Illuminated
Mar 4
Waxing Crescent
Mar 8
First Quarter
Mar 16
Full
Mar 23
Last Quarter
Mar 30
New

Hourly Weather History & Observations

Time (CST) Temp. Windchill Dew Point Humidity Pressure Visibility Wind Dir Wind Speed Gust Speed Precip Events Conditions
12:53 AM 28.0 °F 24.2 °F 15.1 °F 58% 30.31 in 10.0 mi ENE 3.5 mph - N/A   Mostly Cloudy
1:53 AM 28.0 °F 21.7 °F 17.1 °F 63% 30.27 in 10.0 mi ENE 5.8 mph - N/A   Overcast
2:53 AM 27.0 °F 19.5 °F 16.0 °F 63% 30.22 in 10.0 mi NE 6.9 mph - N/A   Mostly Cloudy
3:53 AM 27.0 °F - 16.0 °F 63% 30.23 in 10.0 mi Calm Calm - N/A   Mostly Cloudy
4:53 AM 27.0 °F - 17.1 °F 66% 30.25 in 10.0 mi Calm Calm - N/A   Overcast
5:53 AM 27.0 °F - 18.0 °F 69% 30.25 in 10.0 mi Calm Calm - N/A   Overcast
6:53 AM 28.0 °F 22.8 °F 19.0 °F 69% 30.25 in 10.0 mi ESE 4.6 mph - N/A   Overcast
7:53 AM 28.0 °F 24.2 °F 19.9 °F 72% 30.25 in 10.0 mi Variable 3.5 mph - N/A   Overcast
8:53 AM 30.0 °F - 21.0 °F 69% 30.27 in 10.0 mi Calm Calm - N/A   Overcast
9:53 AM 32.0 °F - 19.9 °F 61% 30.25 in 10.0 mi Calm Calm - N/A   Mostly Cloudy
10:53 AM 35.1 °F - 19.9 °F 54% 30.23 in 10.0 mi Calm Calm - 0.00 in   Clear
11:53 AM 37.9 °F - 21.0 °F 51% 30.19 in 10.0 mi Calm Calm - N/A   Mostly Cloudy
12:53 PM 43.0 °F 39.5 °F 23.0 °F 45% 30.14 in 10.0 mi Variable 5.8 mph - N/A   Scattered Clouds
1:53 PM 46.0 °F 43.9 °F 23.0 °F 40% 30.11 in 10.0 mi South 4.6 mph - N/A   Mostly Cloudy
2:53 PM 48.9 °F - 25.0 °F 39% 30.09 in 10.0 mi Variable 3.5 mph - N/A   Mostly Cloudy
3:53 PM 48.0 °F - 25.0 °F 41% 30.07 in 10.0 mi South 6.9 mph - N/A   Mostly Cloudy
4:53 PM 48.9 °F - 26.1 °F 41% 30.07 in 10.0 mi SSE 6.9 mph - N/A   Mostly Cloudy
5:53 PM 46.9 °F - 27.0 °F 46% 30.06 in 10.0 mi SE 5.8 mph - N/A   Partly Cloudy
6:53 PM 45.0 °F 40.6 °F 28.9 °F 53% 30.05 in 10.0 mi ESE 8.1 mph - N/A   Partly Cloudy
7:53 PM 42.1 °F 35.2 °F 28.9 °F 60% 30.04 in 10.0 mi ESE 12.7 mph - N/A   Clear
8:53 PM 39.9 °F 33.4 °F 28.9 °F 65% 30.05 in 10.0 mi SE 10.4 mph - N/A   Clear
9:53 PM 39.0 °F 32.8 °F 28.0 °F 65% 30.07 in 10.0 mi SE 9.2 mph - N/A   Clear
10:53 PM 37.9 °F 30.9 °F 28.0 °F 68% 30.06 in 10.0 mi ESE 10.4 mph - N/A   Clear
11:53 PM 37.0 °F 31.0 °F 28.9 °F 73% 30.08 in 10.0 mi ESE 8.1 mph - N/A   Partly Cloudy